This demonstration page uses our WeatherBlox Daily Observations layout. Learn more.

Left ArrowRight Arrow

53.62937, 11.41316

Hourly Observations for July 23, 2018

Temp ( °F °C ) Dew Point ( °F °C ) Humidity (%) Winds ( mph kmh ) Pressure ( in mb ) Visibility ( mi km ) Precip ( " mm )
6:50 am 06:50 Partly Cloudy 59 15 59 15 100 100 WSW 5 7 30.00 1016 30 48 N/A
7:20 am 07:20 Partly Cloudy 59 15 59 15 100 100 WSW 3 6 30.00 1016 30 48 N/A
7:50 am 07:50 Partly Cloudy 61 16 61 16 100 100 WSW 3 6 30.00 1016 30 48 N/A
8:20 am 08:20 Partly Cloudy 64 18 63 17 94 94 VRB 2 4 30.00 1016 30 48 N/A
8:50 am 08:50 Mostly Sunny 66 19 61 16 83 83 VRB 1 2 30.00 1016 30 48 N/A
9:20 am 09:20 Mostly Sunny 68 20 59 15 73 73 VRB 6 9 30.00 1016 30 48 N/A
9:50 am 09:50 Mostly Sunny 70 21 59 15 69 69 WSW 6 9 30.00 1016 30 48 N/A
10:20 am 10:20 Mostly Sunny 72 22 57 14 61 61 SW 7 11 30.00 1016 30 48 N/A
10:50 am 10:50 Partly Cloudy 72 22 55 13 57 57 SW 6 9 30.00 1016 30 48 N/A
11:20 am 11:20 Partly Cloudy 75 24 57 14 54 54 WSW 6 9 30.00 1016 30 48 N/A
11:50 am 11:50 Partly Cloudy 75 24 57 14 54 54 SW 8 13 30.00 1016 30 48 N/A
12:20 pm 12:20 Partly Cloudy 75 24 57 14 54 54 WSW 6 9 30.00 1016 30 48 N/A
12:50 pm 12:50 Partly Cloudy 75 24 59 15 57 57 VRB 5 7 30.00 1016 30 48 N/A
1:20 pm 13:20 Mostly Cloudy 75 24 57 14 54 54 VRB 6 9 30.00 1016 30 48 N/A
1:50 pm 13:50 Mostly Cloudy 77 25 57 14 51 51 VRB 5 7 30.00 1016 30 48 N/A
2:20 pm 14:20 Mostly Cloudy 77 25 59 15 54 54 VRB 3 6 30.00 1016 30 48 N/A
2:50 pm 14:50 Mostly Cloudy 79 26 57 14 48 48 W 6 9 30.00 1016 30 48 N/A
3:20 pm 15:20 Mostly Sunny 79 26 57 14 48 48 SW 6 9 30.00 1016 7 11 N/A
3:50 pm 15:50 Mostly Cloudy 79 26 59 15 51 51 VRB 6 9 30.00 1016 30 48 N/A
4:20 pm 16:20 Mostly Cloudy 79 26 59 15 51 51 VRB 5 7 30.00 1016 30 48 N/A
4:50 pm 16:50 Partly Cloudy 79 26 59 15 51 51 VRB 5 7 30.00 1016 30 48 N/A
5:20 pm 17:20 Mostly Sunny 81 27 57 14 45 45 W 3 6 30.00 1016 7 11 N/A
5:50 pm 17:50 Mostly Sunny 81 27 57 14 45 45 WSW 6 9 30.00 1016 7 11 N/A
6:20 pm 18:20 Mostly Sunny 81 27 59 15 48 48 SW 5 7 30.00 1016 7 11 N/A
6:50 pm 18:50 Mostly Sunny 81 27 57 14 45 45 WSW 5 7 29.97 1015 7 11 N/A
7:20 pm 19:20 Mostly Sunny 81 27 57 14 45 45 WSW 5 7 30.00 1016 7 11 N/A
7:50 pm 19:50 Mostly Sunny 81 27 57 14 45 45 VRB 2 4 30.00 1016 7 11 N/A
8:20 pm 20:20 Mostly Sunny 79 26 57 14 48 48 VRB 2 4 30.00 1016 7 11 N/A
8:50 pm 20:50 Mostly Sunny 77 25 61 16 57 57 VRB 2 4 30.00 1016 7 11 N/A

Powered by AerisWeather